| time (UTC) | temp F | wind direction | speed MPH | gust MPH | rain 1hr in | rain 24hr in | rain mn in | humidity % | barometer mb |
| 20260508064846 | 56 | 153 | 0.0 | 0.0 | 0.00 | 0.00 | 0.00 | 67 | 1016.1 |
| 20260508064325 | 57 | 153 | 0.0 | 0.0 | 0.00 | 0.00 | 0.00 | 65 | 1016.1 |
| 20260508062844 | 57 | 153 | 0.0 | 0.0 | 0.00 | 0.00 | 0.00 | 64 | 1016.1 |
| 20260508062315 | 57 | 153 | 0.0 | 0.0 | 0.00 | 0.00 | 0.00 | 63 | 1016.1 |
| 20260508060839 | 58 | 155 | 0.0 | 0.0 | 0.00 | 0.00 | 0.00 | 61 | 1016.1 |
| 20260508060318 | 58 | 154 | 0.0 | 0.0 | 0.00 | 0.00 | 0.00 | 59 | 1016.0 |
| 20260508054838 | 59 | 155 | 0.0 | 0.0 | 0.00 | 0.00 | 0.00 | 58 | 1016.0 |
| 20260508053841 | 60 | 325 | 0.0 | 0.0 | 0.00 | 0.00 | 0.00 | 58 | 1016.0 |
| 20260508053802 | 61 | 325 | 0.0 | 2.0 | 0.00 | 0.00 | 0.00 | 56 | 1016.0 |
| 20260508051837 | 62 | 299 | 1.0 | 6.0 | 0.00 | 0.00 | 0.00 | 55 | 1015.8 |
| 20260508050840 | 62 | 253 | 1.0 | 4.0 | 0.00 | 0.00 | 0.00 | 57 | 1015.9 |
| 20260508045837 | 63 | 292 | 1.0 | 5.0 | 0.00 | 0.00 | 0.00 | 58 | 1015.8 |
| 20260508044836 | 63 | 253 | 1.0 | 5.0 | 0.00 | 0.00 | 0.00 | 58 | 1015.6 |
| 20260508043837 | 64 | 311 | 1.0 | 4.0 | 0.00 | 0.00 | 0.00 | 58 | 1015.6 |
| 20260508042835 | 64 | 298 | 0.0 | 4.0 | 0.00 | 0.00 | 0.00 | 58 | 1015.4 |
| 20260508041836 | 65 | 298 | 1.0 | 3.0 | 0.00 | 0.00 | 0.00 | 59 | 1015.3 |
| 20260508040836 | 65 | 302 | 1.0 | 5.0 | 0.00 | 0.00 | 0.00 | 61 | 1015.1 |
| 20260508035835 | 65 | 322 | 0.0 | 1.0 | 0.00 | 0.00 | 0.00 | 64 | 1015.0 |
| 20260508035319 | 66 | 314 | 1.0 | 2.0 | 0.00 | 0.00 | 0.00 | 61 | 1014.8 |
| 20260508033836 | 65 | 291 | 0.0 | 2.0 | 0.00 | 0.00 | 0.00 | 62 | 1014.4 |
| 20260508032836 | 66 | 67 | 0.0 | 0.0 | 0.00 | 0.00 | 0.00 | 60 | 1014.2 |
| 20260508031834 | 67 | 67 | 0.0 | 0.0 | 0.00 | 0.00 | 0.00 | 57 | 1014.1 |
| 20260508031324 | 68 | 67 | 0.0 | 0.0 | 0.00 | 0.00 | 0.00 | 57 | 1014.0 |
| 20260508025838 | 69 | 67 | 0.0 | 0.0 | 0.00 | 0.00 | 0.00 | 52 | 1014.0 |
| 20260508024833 | 70 | 67 | 0.0 | 0.0 | 0.00 | 0.00 | 0.00 | 50 | 1014.0 |
| 20260508023834 | 71 | 67 | 0.0 | 0.0 | 0.00 | 0.00 | 0.00 | 48 | 1014.0 |
| 20260508023313 | 72 | 67 | 0.0 | 1.0 | 0.00 | 0.00 | 0.00 | 47 | 1014.0 |
| 20260508021829 | 72 | 67 | 0.0 | 1.0 | 0.00 | 0.00 | 0.00 | 45 | 1014.0 |
| 20260508020835 | 73 | 67 | 0.0 | 2.0 | 0.00 | 0.00 | 0.00 | 43 | 1014.1 |
| 20260508015832 | 74 | 82 | 0.0 | 0.0 | 0.00 | 0.00 | 0.00 | 44 | 1014.1 |
| 20260508014830 | 74 | 82 | 0.0 | 2.0 | 0.00 | 0.00 | 0.00 | 43 | 1014.1 |
| 20260508013831 | 74 | 298 | 1.0 | 3.0 | 0.00 | 0.00 | 0.00 | 43 | 1014.3 |
| 20260508012830 | 74 | 324 | 1.0 | 3.0 | 0.00 | 0.00 | 0.00 | 44 | 1014.4 |
| 20260508012311 | 75 | 302 | 1.0 | 3.0 | 0.00 | 0.00 | 0.00 | 44 | 1014.5 |
| 20260508010829 | 74 | 77 | 0.0 | 3.0 | 0.00 | 0.00 | 0.00 | 45 | 1014.5 |
| 20260508005829 | 74 | 108 | 1.0 | 5.0 | 0.00 | 0.00 | 0.00 | 45 | 1014.8 |
| 20260508005330 | 73 | 321 | 3.0 | 6.0 | 0.00 | 0.00 | 0.00 | 45 | 1014.9 |
| 20260508003829 | 74 | 290 | 1.0 | 4.0 | 0.00 | 0.00 | 0.00 | 44 | 1015.0 |
| 20260508002829 | 74 | 336 | 0.0 | 3.0 | 0.00 | 0.00 | 0.00 | 43 | 1015.0 |
| 20260508001829 | 73 | 290 | 1.0 | 4.0 | 0.00 | 0.00 | 0.00 | 45 | 1015.0 |
| 20260508000829 | 73 | 304 | 1.0 | 4.0 | 0.00 | 0.00 | 0.00 | 46 | 1015.2 |
| 20260508000306 | 72 | 300 | 1.0 | 4.0 | 0.00 | 0.00 | 0.00 | 47 | 1015.2 |
| 20260507235807 | 72 | 333 | 2.0 | 6.0 | 0.00 | 0.00 | 0.00 | 50 | 1015.4 |
| 20260507233829 | 73 | 284 | 1.0 | 6.0 | 0.00 | 0.00 | 0.00 | 53 | 1015.3 |
| 20260507233312 | 72 | 271 | 1.0 | 6.0 | 0.00 | 0.00 | 0.00 | 53 | 1015.3 |
| 20260507231829 | 72 | 290 | 2.0 | 8.0 | 0.00 | 0.00 | 0.00 | 54 | 1015.5 |
| 20260507230827 | 72 | 281 | 1.0 | 3.0 | 0.00 | 0.00 | 0.00 | 56 | 1015.6 |
| 20260507225829 | 70 | 296 | 2.0 | 9.0 | 0.00 | 0.00 | 0.00 | 58 | 1015.7 |
| 20260507224827 | 70 | 344 | 2.0 | 6.0 | 0.00 | 0.00 | 0.00 | 56 | 1015.8 |
| 20260507223832 | 71 | 289 | 1.0 | 4.0 | 0.00 | 0.00 | 0.00 | 58 | 1015.9 |
| 20260507222828 | 69 | 285 | 2.0 | 8.0 | 0.00 | 0.00 | 0.00 | 60 | 1016.1 |
| 20260507222309 | 69 | 288 | 2.0 | 5.0 | 0.00 | 0.00 | 0.00 | 59 | 1016.2 |
| 20260507220828 | 69 | 225 | 1.0 | 4.0 | 0.00 | 0.00 | 0.00 | 61 | 1016.2 |
| 20260507215827 | 68 | 306 | 2.0 | 6.0 | 0.00 | 0.00 | 0.00 | 62 | 1016.4 |
| 20260507214827 | 68 | 146 | 2.0 | 8.0 | 0.00 | 0.00 | 0.00 | 61 | 1016.5 |
| 20260507213828 | 67 | 302 | 1.0 | 8.0 | 0.00 | 0.00 | 0.00 | 63 | 1016.6 |
| 20260507212827 | 67 | 51 | 2.0 | 6.0 | 0.00 | 0.00 | 0.00 | 65 | 1016.7 |
| 20260507211823 | 65 | 269 | 3.0 | 9.0 | 0.00 | 0.00 | 0.00 | 65 | 1016.8 |
| 20260507210823 | 65 | 292 | 1.0 | 8.0 | 0.00 | 0.00 | 0.00 | 65 | 1016.9 |
| 20260507205823 | 65 | 304 | 1.0 | 4.0 | 0.00 | 0.00 | 0.00 | 66 | 1017.1 |
| 20260507204820 | 64 | 245 | 2.0 | 9.0 | 0.00 | 0.00 | 0.00 | 67 | 1017.3 |
| 20260507203820 | 64 | 24 | 2.0 | 11.0 | 0.00 | 0.00 | 0.00 | 69 | 1017.3 |
| 20260507202811 | 63 | 296 | 2.0 | 9.0 | 0.00 | 0.00 | 0.00 | 70 | 1017.5 |
| 20260507201812 | 63 | 50 | 2.0 | 6.0 | 0.00 | 0.00 | 0.00 | 69 | 1017.8 |
| 20260507201253 | 62 | 299 | 2.0 | 7.0 | 0.00 | 0.00 | 0.00 | 72 | 1017.8 |
| 20260507200244 | 62 | 303 | 1.0 | 3.0 | 0.00 | 0.00 | 0.00 | 72 | 1018.0 |
| 20260507195248 | 61 | 299 | 2.0 | 6.0 | 0.00 | 0.00 | 0.00 | 73 | 1017.9 |
| 20260507193812 | 61 | 294 | 2.0 | 6.0 | 0.00 | 0.00 | 0.00 | 73 | 1018.0 |
| 20260507192812 | 61 | 269 | 1.0 | 3.0 | 0.00 | 0.00 | 0.00 | 73 | 1018.0 |
| 20260507191809 | 60 | 78 | 2.0 | 3.0 | 0.00 | 0.00 | 0.00 | 75 | 1018.2 |
| 20260507190809 | 60 | 320 | 1.0 | 4.0 | 0.00 | 0.00 | 0.00 | 74 | 1018.3 |
| 20260507190301 | 60 | 282 | 1.0 | 3.0 | 0.00 | 0.00 | 0.00 | 75 | 1018.4 |
| 20260507184808 | 60 | 311 | 1.0 | 2.0 | 0.00 | 0.00 | 0.00 | 76 | 1018.5 |
| 20260507183807 | 60 | 307 | 1.0 | 3.0 | 0.00 | 0.00 | 0.00 | 76 | 1018.4 |
| 20260507182810 | 60 | 197 | 0.0 | 4.0 | 0.00 | 0.00 | 0.00 | 76 | 1018.4 |
| 20260507181807 | 59 | 55 | 0.0 | 1.0 | 0.00 | 0.00 | 0.00 | 78 | 1018.4 |
| 20260507180809 | 59 | 293 | 0.0 | 2.0 | 0.00 | 0.00 | 0.00 | 79 | 1018.5 |
| 20260507175804 | 58 | 209 | 0.0 | 2.0 | 0.00 | 0.00 | 0.00 | 80 | 1018.5 |
| 20260507174805 | 57 | 281 | 1.0 | 3.0 | 0.00 | 0.00 | 0.00 | 81 | 1018.6 |
| 20260507173805 | 57 | 49 | 1.0 | 3.0 | 0.00 | 0.00 | 0.00 | 82 | 1018.6 |
| 20260507172804 | 57 | 292 | 0.0 | 2.0 | 0.00 | 0.00 | 0.00 | 82 | 1018.7 |
| 20260507171808 | 57 | 284 | 0.0 | 2.0 | 0.00 | 0.00 | 0.00 | 83 | 1018.7 |
| 20260507170803 | 56 | 290 | 0.0 | 2.0 | 0.00 | 0.00 | 0.00 | 83 | 1018.7 |
| 20260507165802 | 56 | 304 | 0.0 | 3.0 | 0.00 | 0.00 | 0.00 | 85 | 1018.7 |
| 20260507164801 | 55 | 295 | 1.0 | 3.0 | 0.00 | 0.00 | 0.00 | 85 | 1018.7 |
| 20260507163802 | 55 | 343 | 0.0 | 2.0 | 0.00 | 0.00 | 0.00 | 86 | 1018.7 |
| 20260507162801 | 54 | 307 | 0.0 | 3.0 | 0.00 | 0.00 | 0.00 | 87 | 1018.8 |
| 20260507161801 | 54 | 334 | 0.0 | 2.0 | 0.00 | 0.00 | 0.00 | 87 | 1018.8 |
| 20260507160801 | 53 | 25 | 1.0 | 4.0 | 0.00 | 0.00 | 0.00 | 88 | 1018.9 |
| 20260507160254 | 53 | 286 | 0.0 | 3.0 | 0.00 | 0.00 | 0.00 | 88 | 1018.9 |
| 20260507154801 | 53 | 295 | 1.0 | 2.0 | 0.00 | 0.00 | 0.00 | 88 | 1019.0 |
| 20260507153803 | 53 | 295 | 1.0 | 3.0 | 0.00 | 0.00 | 0.00 | 88 | 1019.0 |
| 20260507153243 | 53 | 321 | 1.0 | 3.0 | 0.00 | 0.00 | 0.00 | 89 | 1019.1 |
| 20260507151802 | 52 | 306 | 1.0 | 2.0 | 0.00 | 0.00 | 0.00 | 89 | 1019.0 |
| 20260507150801 | 52 | 346 | 1.0 | 3.0 | 0.00 | 0.00 | 0.00 | 90 | 1019.0 |
| 20260507150725 | 52 | 296 | 0.0 | 2.0 | 0.00 | 0.00 | 0.00 | 90 | 1019.0 |
| 20260507144800 | 52 | 286 | 0.0 | 2.0 | 0.00 | 0.00 | 0.00 | 91 | 1019.0 |
| 20260507143759 | 52 | 327 | 0.0 | 2.0 | 0.00 | 0.00 | 0.00 | 90 | 1018.9 |
| 20260507143246 | 52 | 282 | 0.0 | 1.0 | 0.00 | 0.00 | 0.00 | 90 | 1018.9 |
| 20260507141801 | 52 | 293 | 0.0 | 1.0 | 0.00 | 0.00 | 0.00 | 90 | 1018.9 |
| 20260507141726 | 52 | 292 | 0.0 | 1.0 | 0.00 | 0.00 | 0.00 | 90 | 1018.7 |
| 20260507135801 | 52 | 285 | 0.0 | 0.0 | 0.00 | 0.00 | 0.00 | 90 | 1018.7 |
| 20260507134800 | 51 | 342 | 1.0 | 2.0 | 0.00 | 0.00 | 0.00 | 90 | 1018.7 |
| 20260507134247 | 51 | 290 | 0.0 | 1.0 | 0.00 | 0.00 | 0.00 | 90 | 1018.6 |
| 20260507132801 | 51 | 312 | 0.0 | 1.0 | 0.00 | 0.00 | 0.00 | 90 | 1018.7 |
| 20260507132233 | 51 | 332 | 1.0 | 2.0 | 0.00 | 0.00 | 0.00 | 90 | 1018.6 |
| 20260507131243 | 51 | 56 | 0.0 | 2.0 | 0.00 | 0.00 | 0.00 | 90 | 1018.7 |
| 20260507125756 | 51 | 298 | 1.0 | 2.0 | 0.00 | 0.00 | 0.00 | 90 | 1018.8 |
| 20260507124757 | 51 | 332 | 0.0 | 2.0 | 0.00 | 0.00 | 0.00 | 90 | 1018.8 |
| 20260507123757 | 52 | 336 | 0.0 | 1.0 | 0.00 | 0.00 | 0.00 | 90 | 1018.8 |
| 20260507122756 | 52 | 296 | 0.0 | 2.0 | 0.00 | 0.00 | 0.00 | 90 | 1018.9 |
| 20260507121757 | 52 | 329 | 1.0 | 3.0 | 0.00 | 0.00 | 0.00 | 89 | 1019.0 |
| 20260507120754 | 52 | 303 | 0.0 | 2.0 | 0.00 | 0.00 | 0.00 | 89 | 1019.0 |
| 20260507120239 | 52 | 325 | 0.0 | 1.0 | 0.00 | 0.00 | 0.00 | 89 | 1019.1 |
| 20260507115230 | 52 | 313 | 0.0 | 1.0 | 0.00 | 0.00 | 0.00 | 89 | 1019.1 |
| 20260507113748 | 52 | 317 | 1.0 | 2.0 | 0.00 | 0.00 | 0.00 | 89 | 1019.1 |
| 20260507113232 | 52 | 313 | 0.0 | 2.0 | 0.00 | 0.00 | 0.00 | 88 | 1019.2 |
| 20260507111747 | 52 | 329 | 0.0 | 3.0 | 0.00 | 0.00 | 0.00 | 88 | 1019.2 |
| 20260507110749 | 52 | 269 | 1.0 | 2.0 | 0.00 | 0.00 | 0.00 | 88 | 1019.3 |
| 20260507105746 | 52 | 292 | 0.0 | 1.0 | 0.00 | 0.00 | 0.00 | 88 | 1019.3 |
| 20260507104746 | 52 | 290 | 0.0 | 4.0 | 0.00 | 0.00 | 0.00 | 87 | 1019.3 |
| 20260507103746 | 52 | 306 | 0.0 | 2.0 | 0.00 | 0.00 | 0.00 | 87 | 1019.4 |
| 20260507102745 | 53 | 317 | 0.0 | 2.0 | 0.00 | 0.00 | 0.00 | 86 | 1019.5 |
| 20260507101745 | 53 | 313 | 1.0 | 2.0 | 0.00 | 0.00 | 0.00 | 86 | 1019.5 |
| 20260507100745 | 53 | 279 | 0.0 | 2.0 | 0.00 | 0.00 | 0.00 | 86 | 1019.5 |
| 20260507095746 | 53 | 293 | 1.0 | 2.0 | 0.00 | 0.00 | 0.00 | 85 | 1019.5 |
| 20260507094743 | 53 | 309 | 1.0 | 4.0 | 0.00 | 0.00 | 0.00 | 85 | 1019.5 |
| 20260507093744 | 53 | 246 | 0.0 | 3.0 | 0.00 | 0.00 | 0.00 | 85 | 1019.5 |
| 20260507092744 | 53 | 318 | 1.0 | 5.0 | 0.00 | 0.00 | 0.00 | 85 | 1019.5 |
| 20260507091745 | 53 | 292 | 1.0 | 4.0 | 0.00 | 0.00 | 0.00 | 85 | 1019.7 |
| 20260507090742 | 53 | 307 | 0.0 | 2.0 | 0.00 | 0.00 | 0.00 | 85 | 1019.7 |
| 20260507090228 | 53 | 303 | 0.0 | 3.0 | 0.00 | 0.00 | 0.00 | 85 | 1019.9 |
| 20260507084743 | 53 | 291 | 0.0 | 2.0 | 0.00 | 0.00 | 0.00 | 85 | 1019.9 |
| 20260507084224 | 53 | 299 | 0.0 | 3.0 | 0.00 | 0.00 | 0.00 | 85 | 1019.9 |
| 20260507082738 | 53 | 313 | 0.0 | 3.0 | 0.00 | 0.00 | 0.00 | 85 | 1020.0 |
| 20260507081740 | 53 | 297 | 1.0 | 4.0 | 0.00 | 0.00 | 0.00 | 85 | 1020.1 |
| 20260507080738 | 53 | 303 | 1.0 | 3.0 | 0.00 | 0.00 | 0.00 | 85 | 1020.1 |
| 20260507075738 | 53 | 277 | 0.0 | 4.0 | 0.00 | 0.00 | 0.00 | 85 | 1020.1 |
| 20260507074736 | 53 | 298 | 0.0 | 2.0 | 0.00 | 0.00 | 0.00 | 85 | 1020.1 |
| 20260507074218 | 53 | 291 | 1.0 | 3.0 | 0.00 | 0.00 | 0.00 | 85 | 1020.3 |
| 20260507072730 | 53 | 273 | 0.0 | 2.0 | 0.00 | 0.00 | 0.00 | 86 | 1020.2 |
| 20260507071730 | 53 | 288 | 0.0 | 1.0 | 0.00 | 0.00 | 0.00 | 86 | 1020.1 |
| 20260507071127 | 53 | 310 | 0.0 | 3.0 | 0.00 | 0.00 | 0.00 | 86 | 1020.2 |
| 20260507065731 | 52 | 294 | 0.0 | 1.0 | 0.00 | 0.00 | 0.00 | 86 | 1020.2 |